Regional Weather Roundup
Issued by NWS

Home | Current Version | Previous Version | Graphics & Text | Print | Product List | Glossary On
Versions: 1 2 3 4 5 6 7 8 9 10 11 12 13 14 15 16 17 18 19 20 21 22 23 24 25 26 27 28 29 30 31 32 33 34 35 36 37 38 39 40 41 42 43 44 45 46 47 48 49 50
252
ASUS45 KBOU 222107
RWRCO

WEATHER ROUNDUP FOR COLORADO
NATIONAL WEATHER SERVICE DENVER/BOULDER CO
300 PM MDT THU JUN 22 2017

NOTE: "FAIR" INDICATES FEW OR NO CLOUDS BELOW 12000 FEET WITH NO
SIGNIFICANT WEATHER AND/OR OBSTRUCTIONS TO VISIBILITY.

COZ001>005-013-030-031-222200-
...NORTHWEST COLORADO...

CITY           SKY/WX    TMP DP  RH WIND       PRES   REMARKS
CRAIG          FAIR      89  30  12 NW10      29.99F
HAYDEN         FAIR      84  36  17 NW18      30.02F
MEEKER         FAIR      90  36  14 N13       29.98F
RABBIT EARS PA FAIR      66  41  39 W13G23    30.34R
STEAMBOAT SPGS FAIR      82  42  23 W13G22    30.04S
WALDEN         FAIR      79  30  17 W21G29    30.14S
$$

COZ006>008-011-222200-
...WEST CENTRAL VALLEYS...

CITY           SKY/WX    TMP DP  RH WIND       PRES   REMARKS
GRAND JUNCTION FAIR     101  32   9 NW20G25   29.84F
MONTROSE       FAIR      98  19   6 W21G26    29.93F
EAGLE            N/A     82  30  15 W35G44    30.03R
RIFLE          LGT RAIN  87  28  12 N7G32     29.93R
DELTA          FAIR     103  21   5 W9G25     29.87F
NUCLA          FAIR      99  14   4 W22G29    29.99F
$$

COZ017>023-064>068-222200-
...SOUTHWEST COLORADO...

CITY           SKY/WX    TMP DP  RH WIND       PRES   REMARKS
DURANGO        FAIR      90  22   8 W16G23    30.04F
CORTEZ         FAIR      98   5   3 W20G29    29.99F
PAGOSA SPRINGS FAIR      87  18   8 SW17G26   30.13F
TELLURIDE      FAIR      76  23  13 SW7G28    30.29F
WOLF CREEK PAS FAIR      59  32  36 SW12G24   30.55S
$$

COZ009-010-012-014-032>034-037-058>063-222200-
...CENTRAL COLORADO...

CITY           SKY/WX    TMP DP  RH WIND       PRES   REMARKS
ASPEN          FAIR      83  25  12 VRB5      30.09S
BUENA VISTA    FAIR      87  22   9 W14G30    30.09F
COPPER MTN     PTSUNNY   64   9  11 NW13G31   30.47S
BERTHOUD PASS  CLOUDY    45  32  61 NW31G46   30.54R
COTTONWOOD PAS FAIR      75  12   9 W6G30     30.27F
GUNNISON       FAIR      85  28  12 W15G24    30.10F
KREMMLING      NOT AVBL
LEADVILLE      FAIR      74  17  11 W16G28    30.27F
MONARCH PASS   FAIR      68  27  21 W37       30.58S
SALIDA         FAIR      89  25  10 W20G25    30.13F
SUNLIGHT       RAIN      59  32  36 NW6       30.41R
WILKERSON PASS FAIR      61  25  25 S6G20     30.42S
$$

COZ069>075-222200-
...SAN LUIS VALLEY/SANGRE DE CRISTO MOUNTAINS...

CITY           SKY/WX    TMP DP  RH WIND       PRES   REMARKS
ALAMOSA        LGT RAIN  68  43  40 N13G28    30.14R
DEL NORTE      FAIR      82  26  13 W18G33    30.11F
LA VETA PASS   LGT RAIN  64  32  29 MISG      30.45F
SAGUACHE       FAIR      84  34  16 NW5       30.11S
$$

COZ035-036-038>040-222200-
...NORTHERN COLORADO FRONT RANGE...

CITY           SKY/WX    TMP DP  RH WIND       PRES   REMARKS
DENVER INTL AP PTSUNNY   87  47  24 NE16      29.95R
DMNS CITY PARK   N/A     80  47  30 N10       29.98R
AURORA         PTSUNNY   84  50  30 NE20      29.97R
FRONT RANGE AP FAIR      86  46  25 E17G25    29.97R
ERIE MUNI ARPT FAIR      78  44  29 N10G18    29.98R THUNDER
BOULDER MUN AP FAIR      77  48  36 N7        29.97R THUNDER
CENTENNIAL     PTSUNNY   86  45  23 NE10      29.97R
BROOMFIELD     FAIR      79  46  31 NW18G24   30.03R THUNDER
FORT COLLINS   FAIR      83  45  26 NE10G22   29.97R
LONGMONT       LGT RAIN  73  58  59 E12       29.95F
$$

COZ041-046-047-076>085-087-088-222200-
...PIKES PEAK/PALMER DIVIDE AND SOUTHERN FOOTHILLS...

CITY           SKY/WX    TMP DP  RH WIND       PRES   REMARKS
COLO. SPRINGS  PTSUNNY   85  41  21 NE14      29.97S
A. F. ACADEMY  MOSUNNY   81  39  22 NE22      29.96F
SCHRIEVER AFB  NOT AVBL
CHEYENNE MTN   NOT AVBL
ELLICOTT       FAIR     N/A N/A N/A NE20G35   29.95F THUNDER
FALCON           N/A     82  38  20 NE23G32   30.05F
FORT CARSON    FAIR      88  32  13 N13G33    29.90F
LIMON          FAIR      82  46  28 NW24G30   29.96R
MONUMENT HILL  FAIR      79  43  27 S9G23     30.07F
CANON CITY     SUNNY    100  34  10 SW12G17   29.83S
WALSENBURG     FAIR      91  30  11 W16G37    29.93F
TRINIDAD       FAIR      94  31  10 SW5       29.90F
$$

COZ042>045-048>051-090-091-222200-
...NORTHEAST COLORADO...

CITY           SKY/WX    TMP DP  RH WIND       PRES   REMARKS
GREELEY ARPT   FAIR      81  45  28 NE15G21   29.92S
AKRON          FAIR      86  50  28 N18G26    29.93R
BURLINGTON     FAIR      91  57  31 NE20G28   29.82F
WRAY           FAIR      88  52  29 NE24G30   29.82S
YUMA           NOT AVBL
STERLING       FAIR      82  54  36 NE14G23   29.87R
HOLYOKE        NOT AVBL
FORT MORGAN    FAIR      85  47  26 NE15      29.90F
$$

COZ086-089-092>099-222200-
...SOUTHEAST COLORADO...

CITY           SKY/WX    TMP DP  RH WIND       PRES   REMARKS
PUEBLO         FAIR      93  39  15 N28G37    29.79S
LA JUNTA       FAIR      99  43  14 W6        29.75F
LAMAR          FAIR     104  37  10 CALM      29.68F
SPRINGFIELD      N/A    100  39  12 N9        29.77F
$$




USA.gov is the U.S. government's official web portal to all federal, state and local government web resources and services.